Location: Ferchesar
(52.6477°N, 12.4298°E)
Time: 04:38:35
(UTC+02:00)

Vanguard 3 - Pass Details

Date: 02 March 2021
Orbit: 508 x 3262 km, 33.3° (Epoch: 15 April)

Event Time Altitude Azimuth Distance (km) Brightness Sun altitude
Rises 14:59:53 0° 216° (SW) 7,221 13.5 21.6°
Reaches altitude 10° 15:06:07 10° 206° (SSW) 6,123 13.2 21.0°
Maximum altitude 15:19:43 26° 160° (SSE) 4,318 11.3 19.5°
Drops below altitude 10° 15:30:10 10° 112° (ESE) 4,657 10.8 18.3°
Sets 15:34:01 0° 100° (E) 5,259 10.9 17.9°
